Date String (YYYY-MM-DD hh:mm:ss) UTC,Instrument flags,Ambient pressure (hPa),Sample flow (lpm),Bypass flow (lpm),Sample temperature (°C),Ambient temperature (°C),ASC tube jacket temperature (°C),LED temperature (°C),Box temperature (°C),Sample RH (%),Span deviation,Mass concentration (μg/m³),Mass concentration (μg/m³),Mass concentration (μg/m³)
DateTimeUTC,F1_M11,P_M11,Q1_M11,Q2_M11,T1_M11,T2_M11,T3_M11,T4_M11,T5_M11,U1_M11,ZSPAN_M11,X0_M11,X2_M11,X1_M11
2023-04-05 02:00:00,,0821.5,5.00,0.00,23.3,22.4,00.0,31.6,24.8,11.3,0000.0,0006.46,0003.69,0003.45
2023-04-05 02:01:00,,0822.0,5.00,0.00,23.2,22.1,00.0,31.6,24.7,11.3,0000.0,0006.64,0003.70,0003.45
2023-04-05 02:02:00,,0822.0,5.01,0.00,23.2,21.8,00.0,31.6,24.6,11.3,0000.0,0006.67,0003.71,0003.45
2023-04-05 02:03:00,,0822.0,5.00,0.00,23.2,21.6,00.0,31.6,24.6,11.3,0000.0,0006.99,0003.71,0003.45
2023-04-05 02:04:00,,0822.1,5.00,0.00,23.1,21.4,00.0,31.6,24.5,11.3,0000.0,0007.53,0003.71,0003.44
2023-04-05 02:05:00,,0822.0,5.01,0.00,23.1,21.3,00.0,31.6,24.5,11.3,0000.0,0007.47,0003.70,0003.43
2023-04-05 02:06:00,,0822.0,5.00,0.00,23.1,21.2,00.0,31.5,24.5,11.3,0000.0,0007.49,0003.70,0003.42
2023-04-05 02:07:00,,0822.0,4.99,0.00,23.0,21.0,00.0,31.5,24.4,11.4,0000.0,0007.57,0003.71,0003.42
2023-04-05 02:08:00,,0822.0,5.01,0.00,23.0,20.9,00.0,31.5,24.4,11.4,0000.0,0007.59,0003.72,0003.43
2023-04-05 02:09:00,,0822.1,5.00,0.00,23.0,20.8,00.0,31.5,24.3,11.4,0000.0,0007.41,0003.74,0003.43
2023-04-05 02:10:00,,0821.7,5.00,0.00,22.9,20.7,00.0,31.4,24.3,11.4,0000.0,0007.19,0003.74,0003.43
2023-04-05 02:11:00,,0821.5,5.01,0.00,22.9,20.8,00.0,31.4,24.3,11.4,0000.0,0006.87,0003.73,0003.44
2023-04-05 02:12:00,,0821.6,5.00,0.00,23.0,21.6,00.0,31.3,24.7,11.5,0000.0,0006.52,0003.70,0003.43
2023-04-05 02:13:00,,0821.6,5.00,0.00,23.1,22.7,00.0,31.3,25.0,11.5,0000.0,0006.48,0003.70,0003.43
2023-04-05 02:14:00,,0821.6,5.00,0.00,23.2,23.1,00.0,31.3,25.0,11.4,0000.0,0006.35,0003.73,0003.44
2023-04-05 02:15:00,,0821.6,4.98,0.00,23.1,22.7,00.0,31.4,24.8,11.4,0000.0,0005.21,0003.73,0003.45
2023-04-05 02:16:00,,0821.6,4.99,0.00,23.1,22.3,00.0,31.4,24.6,11.5,0000.0,0005.28,0003.74,0003.45
2023-04-05 02:17:00,,0821.6,5.02,0.00,23.0,21.9,00.0,31.4,24.4,11.5,0000.0,0005.23,0003.73,0003.46
2023-04-05 02:18:00,,0821.6,5.01,0.00,23.0,21.6,00.0,31.4,24.3,11.6,0000.0,0005.32,0003.73,0003.47
2023-04-05 02:19:00,,0821.7,4.99,0.00,22.9,21.2,00.0,31.4,24.2,11.6,0000.0,0006.20,0003.75,0003.48
2023-04-05 02:20:00,,0821.6,5.00,0.00,22.9,21.0,00.0,31.4,24.1,11.7,0000.0,0006.64,0003.78,0003.50
2023-04-05 02:21:00,,0821.7,5.00,0.00,22.8,20.7,00.0,31.4,24.1,11.7,0000.0,0006.94,0003.79,0003.50
2023-04-05 02:22:00,,0821.7,5.00,0.00,22.8,20.5,00.0,31.3,24.0,11.8,0000.0,0007.12,0003.82,0003.51
2023-04-05 02:23:00,,0821.7,5.00,0.00,22.7,20.5,00.0,31.3,24.0,11.8,0000.0,0007.26,0003.85,0003.52
2023-04-05 02:24:00,,0821.7,5.00,0.00,22.8,21.2,00.0,31.2,24.3,11.8,0000.0,0007.45,0003.91,0003.54
2023-04-05 02:25:00,,0821.8,5.01,0.00,22.9,22.3,00.0,31.2,24.7,11.8,0000.0,0007.61,0003.92,0003.55
2023-04-05 02:26:00,,0821.8,5.01,0.00,23.0,23.0,00.0,31.2,24.9,11.7,0000.0,0007.82,0003.98,0003.56
2023-04-05 02:27:00,,0821.8,4.99,0.00,23.0,22.8,00.0,31.3,24.6,11.7,0000.0,0007.82,0003.99,0003.56
2023-04-05 02:28:00,,0821.8,5.00,0.00,22.9,22.4,00.0,31.3,24.5,11.7,0000.0,0007.85,0003.98,0003.55
2023-04-05 02:29:00,,0821.8,5.00,0.00,22.9,22.0,00.0,31.3,24.4,11.7,0000.0,0007.74,0003.98,0003.54
2023-04-05 02:30:00,,0821.8,5.01,0.00,22.9,21.7,00.0,31.3,24.3,11.7,0000.0,0007.23,0003.95,0003.55
2023-04-05 02:31:00,,0821.8,5.01,0.00,22.8,21.4,00.0,31.3,24.2,11.8,0000.0,0007.31,0003.92,0003.54
2023-04-05 02:32:00,,0821.8,5.00,0.00,22.8,21.1,00.0,31.3,24.2,11.8,0000.0,0007.19,0003.91,0003.54
2023-04-05 02:33:00,,0821.8,4.99,0.00,22.7,20.8,00.0,31.2,24.1,11.8,0000.0,0007.14,0003.90,0003.53
2023-04-05 02:34:00,,0821.9,5.00,0.00,22.7,20.7,00.0,31.2,24.0,11.9,0000.0,0007.03,0003.89,0003.53
2023-04-05 02:35:00,,0822.0,5.00,0.00,22.6,20.5,00.0,31.2,23.9,11.9,0000.0,0006.75,0003.84,0003.51
2023-04-05 02:36:00,,0821.9,5.00,0.00,22.7,20.9,00.0,31.1,24.2,11.9,0000.0,0006.51,0003.81,0003.50
2023-04-05 02:37:00,,0822.0,4.98,0.00,22.8,22.0,00.0,31.1,24.6,11.8,0000.0,0006.30,0003.77,0003.49
2023-04-05 02:38:00,,0822.0,5.00,0.00,22.9,22.9,00.0,31.1,24.8,11.7,0000.0,0006.37,0003.78,0003.49
2023-04-05 02:39:00,,0822.0,5.00,0.00,22.9,22.7,00.0,31.1,24.6,11.7,0000.0,0006.45,0003.79,0003.48
2023-04-05 02:40:00,,0822.0,4.99,0.00,22.9,22.3,00.0,31.2,24.4,11.8,0000.0,0006.41,0003.78,0003.48
2023-04-05 02:41:00,,0822.0,4.99,0.00,22.8,21.9,00.0,31.2,24.2,11.8,0000.0,0006.58,0003.79,0003.47
2023-04-05 02:42:00,,0822.0,5.01,0.00,22.7,21.5,00.0,31.2,24.1,11.7,0000.0,0006.54,0003.81,0003.47
2023-04-05 02:43:00,,0822.0,5.00,0.00,22.7,21.1,00.0,31.2,24.0,11.7,0000.0,0006.64,0003.81,0003.48
2023-04-05 02:44:00,,0822.0,5.00,0.00,22.6,20.8,00.0,31.2,23.9,11.7,0000.0,0006.63,0003.83,0003.49
2023-04-05 02:45:00,,0822.1,5.00,0.00,22.6,20.6,00.0,31.1,23.9,11.6,0000.0,0006.73,0003.85,0003.49
2023-04-05 02:46:00,,0822.1,5.00,0.00,22.5,20.5,00.0,31.1,23.8,11.6,0000.0,0006.77,0003.86,0003.50
2023-04-05 02:47:00,,0822.1,5.00,0.00,22.5,20.4,00.0,31.1,23.8,11.6,0000.0,0006.65,0003.85,0003.49
2023-04-05 02:48:00,,0822.1,5.01,0.00,22.6,21.1,00.0,31.0,24.1,11.6,0000.0,0006.66,0003.83,0003.49
2023-04-05 02:49:00,,0822.2,5.00,0.00,22.7,22.2,00.0,31.0,24.5,11.5,0000.0,0006.53,0003.81,0003.50
2023-04-05 02:50:00,,0822.2,4.99,0.00,22.8,22.9,00.0,31.0,24.7,11.4,0000.0,0006.48,0003.82,0003.51
2023-04-05 02:51:00,,0822.2,4.99,0.00,22.8,22.7,00.0,31.1,24.5,11.4,0000.0,0006.60,0003.85,0003.52
2023-04-05 02:52:00,,0822.3,5.00,0.00,22.8,22.3,00.0,31.1,24.4,11.5,0000.0,0006.85,0003.90,0003.54
2023-04-05 02:53:00,,0822.2,5.01,0.00,22.8,22.0,00.0,31.1,24.3,11.5,0000.0,0006.52,0003.91,0003.56
2023-04-05 02:54:00,,0822.2,5.00,0.00,22.7,21.6,00.0,31.1,24.2,11.6,0000.0,0007.39,0003.94,0003.57
2023-04-05 02:55:00,,0822.2,4.99,0.00,22.7,21.3,00.0,31.1,24.1,11.6,0000.0,0007.42,0003.94,0003.57
2023-04-05 02:56:00,,0822.3,5.00,0.00,22.7,21.1,00.0,31.1,24.1,11.6,0000.0,0007.42,0003.94,0003.58
2023-04-05 02:57:00,,0822.3,5.01,0.00,22.6,20.9,00.0,31.1,24.0,11.6,0000.0,0007.67,0003.96,0003.59
2023-04-05 02:58:00,,0822.4,5.01,0.00,22.6,20.8,00.0,31.1,24.0,11.6,0000.0,0007.76,0003.97,0003.59
2023-04-05 02:59:00,,0822.4,4.99,0.00,22.5,20.7,00.0,31.1,23.9,11.6,0000.0,0007.72,0003.98,0003.60
